Regional Weather Roundup
Issued by NWS

Home | Current Version | Previous Version | Graphics & Text | Print | Product List | Glossary Off
Versions: 1 2 3 4 5 6 7 8 9 10 11 12 13 14 15 16 17 18 19 20 21 22 23 24 25 26 27 28 29 30 31 32 33 34 35 36 37 38 39 40 41 42 43 44 45 46 47 48 49 50

000
ASUS43 KMKX 250320
RWRWI

WISCONSIN REGIONAL WEATHER ROUNDUP
NATIONAL WEATHER SERVICE MILWAUKEE/SULLIVAN WI
1000 PM CDT THU JUL 24 2014

NOTE: "FAIR" INDICATES FEW OR NO CLOUDS BELOW 12,000 FEET WITH NO
SIGNIFICANT WEATHER AND/OR OBSTRUCTIONS TO VISIBILITY.

WIZ001-002-006>008-014>016-023>028-250400-
NORTHWEST WISCONSIN

CITY           SKY/WX    TMP DP  RH WIND       PRES   REMARKS
SUPERIOR ARPT  CLOUDY    62  56  81 CALM      29.94F
ASHLAND        CLOUDY    61  59  93 CALM      29.97F
HAYWARD        PTCLDY    67  60  78 CALM      29.99S
SIREN          CLEAR     69  58  69 SE3       29.97R
RICE LAKE      MOCLDY    64  58  81 E3        30.00R
LADYSMITH      CLEAR     64  58  82 E3        30.02S
EAU CLAIRE     CLEAR     70  58  65 SE3       29.97R
MENOMONIE      CLEAR     66  61  83 E3        29.98R
NEW RICHMOND   CLEAR     67  60  76 E3        29.97R
OSCEOLA        CLOUDY    70  61  72 CALM      29.98R
$$

WIZ003>005-009-010-017-018-250400-
NORTH CENTRAL WISCONSIN

CITY           SKY/WX    TMP DP  RH WIND       PRES   REMARKS
WOODRUFF       PTCLDY    59  48  67 CALM      30.03R
RHINELANDER    PTCLDY    57  53  86 CALM      30.04R
EAGLE RIVER    PTCLDY    59  53  83 CALM      30.03R
LAND O LAKES   MOCLDY    58  55  91 CALM      30.04R
PHILLIPS       CLEAR     61  58  89 CALM      30.02S
TOMAHAWK       MOCLDY    57  54  92 CALM      30.04R
MEDFORD        PTCLDY    60  56  88 CALM      30.03R
MERRILL        CLOUDY    60  57  91 N3        30.02R
$$

WIZ029-030-035-036-043>047-250400-
CENTRAL WISCONSIN

CITY           SKY/WX    TMP DP  RH WIND       PRES   REMARKS
WAUSAU         CLOUDY    68  55  63 E3        29.99R
MOSINEE        CLOUDY    63  57  82 CALM      30.02R
MARSHFIELD     PTCLDY    65  58  78 S3        30.00R
STEVENS POINT  CLOUDY    65  54  69 CALM      30.01R
WAUPACA        CLOUDY    68  56  66 CALM      30.01R
WAUTOMA        MOCLDY    65  57  75 CALM      30.02R
WISC RAPIDS    MOCLDY    67  55  65 S3        30.02R
CAMP DOUGLAS   MOCLDY    61  61 100 SE3       30.01R
$$

WIZ011>013-019>022-031-037>040-048>050-250400-
NORTHEAST WISCONSIN

CITY           SKY/WX    TMP DP  RH WIND       PRES   REMARKS
ANTIGO         MOCLDY    60  56  85 CALM      30.03R
STURGEON BAY   PTCLDY    61  43  51 S12       30.02S
GREEN BAY      PTCLDY    64  46  52 S8        30.02S
MANITOWOC      PTCLDY    62  45  53 S7        30.03F
APPLETON       MOCLDY    66  52  59 SE10      30.02R
CLINTONVILLE   MOCLDY    64  54  68 SE5       30.01R
OSHKOSH        MOCLDY    64  48  56 S12       30.01R
$$

WIZ032>034-041-042-053>061-250400-
SOUTHWEST WISCONSIN

CITY           SKY/WX    TMP DP  RH WIND       PRES   REMARKS
LA CROSSE      CLEAR     72  60  66 SE7       29.96R
SPARTA         CLEAR     64  57  77 CALM      30.00R
VIROQUA        FAIR      65  59  81 SE5       30.00S
BOSCOBEL       MOCLDY    71  58  63 CALM      29.98R
PRAIRIE DU CHI MOCLDY    68  57  68 CALM      29.97R
PLATTEVILLE    FAIR      65  59  81 SE9       30.01F
$$

WIZ056-057-062-063-064-067-068-250400-
SOUTH CENTRAL WISCONSIN

CITY           SKY/WX    TMP DP  RH WIND       PRES   REMARKS
BARABOO/DELLS  PTCLDY    64  55  71 S5        30.02R
LONE ROCK      MOCLDY    70  59  68 NE3       30.00S
WATERTOWN      MOCLDY    63  49  61 SE6       30.03S
MADISON        PTCLDY    70  57  63 S7        30.02R
MIDDLETON      FAIR      69  55  62 S3        30.02S
MONROE         MOCLDY    64  57  77 S8        30.03S
JANESVILLE     MOCLDY    64  54  68 S6        30.03S
$$

WIZ051-052-058>065-066-070>072-250400-
SOUTHEAST WISCONSIN

CITY           SKY/WX    TMP DP  RH WIND       PRES   REMARKS
MILWAUKEE      MOCLDY    62  45  53 S9        30.04F
WAUKESHA       MOCLDY    59  43  55 S6        30.06S
MILWAUKEE/TIMM MOCLDY    63  37  39 S5        30.05F
RACINE         PTCLDY    62  48  60 S6        30.07F
BURLINGTON     PTCLDY    57  47  69 CALM      30.05F
KENOSHA        MOCLDY    62  45  53 S7        30.06F
FOND DU LAC    MOCLDY    63  46  54 S12       30.02S
SHEBOYGAN      CLEAR     58  46  64 S6        30.03F
WEST BEND      MOCLDY    61  41  48 SW5       30.04S
JUNEAU         PTCLDY    64  44  49 SE12      30.05R
$$

LSZ147-162-250400-
LAKE SUPERIOR

STATION/POSITION TIME  TEMP    WIND        PRES    WAVE
                       AIR SEA DIR/SP/G            HT/PER
                 (UTC) (F)     (DEG/KT/KT) (MB)    (FT/S)
$$

LMZ867-665-643>646-250400-
LAKE MICHIGAN

STATION/POSITION TIME  TEMP    WIND        PRES    WAVE
                       AIR SEA DIR/SP/G            HT/PER
                 (UTC) (F)     (DEG/KT/KT) (MB)    (FT/S)
$$

TC  - TEMPERATURE IN CELSIUS
VSB - VISIBILITY IN STATUTE MILES
WCI - WIND CHILL INDEX
HX  - HEAT INDEX




USA.gov is the U.S. government's official web portal to all federal, state and local government web resources and services.